Temp
69 67 62 60 60 62 64 65 63 64 65 65 64 62 64 65 65 63 64 65 64 64 65 65 65 65 67 67 67 66 65 64 59 63 64 64 59 61 64 65 66 65 67
68 64 62 61 59 58 61 65 64 64 64 65 65 65 65 65 64 63 64 66 65 64 65 65 65 67 64 65 66 63 64 63 58 56 59 60 60 62 61 60 63 66 65
69 67 62 61 61 59 60 62 66 65 65 65 65 65 65 64 63 63 65 65 65 65 66 65 65 65 63 65 63 61 64 62 59 55 57 63 62 63 60 61 61 61 65
69 67 64 62 62 61 60 61 64 66 65 64 63 65 65 62 60 61 65 64 65 66 66 65 65 64 63 62 61 62 61 61 61 60 60 60 60 60 60 58 58 62 59
69 67 67 63 63 61 59 58 59 60 62 64 63 65 64 61 59 58 63 63 64 65 65 65 64 63 59 59 63 63 61 61 61 60 59 59 59 58 56 58 56 56 57
69 68 67 63 61 60 58 58 57 60 65 63 63 64 60 58 54 54 60 62 65 64 64 65 64 59 59 56 56 55 57 58 57 58 58 56 55 55 57 54 54 49 45
66 67 66 65 60 58 59 57 59 58 61 62 63 61 57 53 50 50 52 62 64 64 64 64 65 62 58 62 54 53 53 52 52 56 55 55 54 55 54 52 50 46 44
65 63 63 61 60 60 58 56 55 57 56 56 57 56 55 55 50 49 50 59 64 64 63 64 61 63 62 61 61 61 60 60 59 60 57 56 57 57 55 53 50 49 53
66 63 62 62 61 61 56 56 55 53 53 53 54 53 53 54 49 48 49 62 61 62 64 63 56 62 51 48 60 59 59 60 55 51 50 48 46 46 49 54 54 51 51
67 67 65 66 64 64 60 56 55 54 53 54 54 54 53 53 49 47 48 61 60 63 61 59 50 58 46 46 59 59 57 59 59 59 59 56 55 55 50 55 52 45 47
68 69 68 67 66 65 63 56 57 54 54 53 54 54 53 52 52 46 46 60 62 62 62 62 64 46 45 44 45 58 56 55 56 58 59 59 58 56 54 51 48 46 45
67 68 68 68 67 65 61 58 56 54 53 53 53 52 53 53 49 49 45 46 53 61 62 65 62 45 43 43 47 49 44 45 60 59 58 58 56 53 54 57 53 54 55
67 66 66 64 65 65 60 56 55 54 53 52 52 52 52 54 55 47 44 45 47 60 64 56 46 43 43 45 43 44 41 59 59 58 57 57 58 58 53 52 55 57 57
65 65 65 65 61 62 62 57 55 54 53 53 53 53 53 54 56 61 58 53 48 56 50 59 53 49 42 50 54 53 60 61 58 58 58 59 59 58 57 58 56 56 55
64 65 65 65 64 62 55 54 55 55 54 54 54 54 54 54 61 55 52 60 61 57 57 62 62 62 62 63 62 61 61 60 58 59 58 58 58 58 56 58 56 55 53
64 65 64 64 65 60 53 51 42 46 45 47 47 53 59 51 44 44 43 43 42 41 59 62 62 62 61 61 60 60 60 56 59 58 57 57 56 55 54 54 55 53 51
63 64 64 59 62 58 53 51 48 43 41 42 44 45 47 47 42 42 40 40 39 42 62 63 62 62 61 60 60 59 58 58 56 57 56 55 54 54 51 52 52 52 51
65 52 63 64 64 62 56 52 52 49 48 46 43 46 40 41 41 40 40 43 55 54 64 62 62 62 60 59 59 58 58 57 57 55 54 53 53 52 51 50 50 49 49
65 65 64 64 63 59 57 53 52 51 49 47 52 46 44 40 39 40 41 63 63 64 64 62 63 62 60 59 58 58 56 55 52 53 53 52 52 51 49 49 49 40 40
64 51 53 62 61 55 53 51 49 48 45 47 55 54 55 52 57 60 63 63 64 64 64 63 62 61 60 59 58 57 56 53 53 53 52 51 51 50 48 48 48 46 46
64 65 52 61 58 56 52 49 48 47 46 49 55 54 44 61 62 62 62 62 63 64 62 61 62 61 60 58 57 56 53 53 53 52 50 49 49 47 47 47 47 45 42
63 64 59 59 56 53 50 48 47 46 48 53 54 51 36 62 62 61 61 62 63 62 62 60 61 60 59 57 55 53 52 51 50 49 47 46 44 42 42 45 45 43 38
62 64 63 60 56 47 49 48 47 48 52 56 57 57 58 60 61 60 60 60 61 60 60 60 59 59 58 55 54 53 51 49 48 47 44 39 38 38 39 40 41 38 37
65 64 65 58 51 50 49 48 48 47 56 57 57 58 58 60 59 57 59 59 59 58 58 59 57 55 54 54 54 54 52 49 46 44 39 37 37 38 38 38 39 38 39
62 64 60 54 52 50 48 49 49 52 57 55 56 57 58 58 58 58 58 58 57 58 56 56 55 53 53 51 51 50 40 33 37 34 36 39 40 39 40 40 42 41 42
63 62 59 55 54 52 49 50 51 54 54 56 56 57 58 58 57 57 57 56 57 57 54 56 54 51 51 51 49 35 32 32 34 32 37 43 39 40 44 45 46 47 45
MSLP
1015.26 1015.74 1016.18 1016.71 1017.00 1017.57 1017.90 1018.06 1018.38 1018.62 1018.90 1019.42 1020.00 1020.56 1020.96 1021.33 1021.50 1021.65 1021.73 1021.51 1021.84 1021.79 1021.93 1021.72 1021.93 1022.00 1021.80 1021.72 1021.79 1021.80 1021.46 1021.18 1020.60 1020.02 1019.96 1020.06 1020.21 1019.75 1019.39 1019.22 1018.60 1018.30 1018.02
1014.99 1015.42 1015.70 1016.37 1016.81 1017.16 1017.29 1017.57 1018.02 1018.25 1018.68 1019.16 1019.43 1019.73 1020.48 1020.82 1021.27 1021.38 1021.35 1021.23 1021.32 1021.35 1021.33 1021.35 1021.52 1021.45 1021.62 1021.58 1021.50 1021.35 1021.00 1020.95 1020.72 1020.13 1019.87 1019.90 1019.77 1019.61 1019.49 1019.09 1018.35 1018.03 1018.09
1014.73 1015.07 1015.60 1015.79 1016.13 1016.54 1016.94 1017.19 1017.56 1017.82 1018.24 1018.67 1019.16 1019.05 1019.59 1020.16 1020.70 1020.99 1020.98 1021.08 1021.10 1020.96 1020.88 1021.04 1021.02 1021.16 1021.22 1021.07 1021.36 1021.06 1020.75 1020.58 1020.42 1020.29 1019.73 1019.48 1019.62 1019.36 1019.19 1018.56 1018.40 1018.21 1017.71
1014.18 1014.52 1015.00 1015.45 1015.68 1015.94 1016.34 1016.71 1016.96 1017.33 1017.76 1018.22 1018.52 1018.72 1019.02 1019.67 1020.20 1020.75 1020.82 1020.96 1020.76 1020.65 1020.68 1020.73 1020.68 1020.89 1020.95 1020.95 1020.78 1020.83 1020.71 1020.22 1020.14 1019.86 1019.50 1019.32 1019.29 1019.32 1019.09 1018.40 1018.01 1017.73 1017.75
1014.05 1014.30 1014.45 1014.91 1015.48 1015.88 1016.10 1016.47 1016.87 1017.25 1017.65 1017.94 1018.18 1018.48 1018.95 1019.78 1020.16 1020.60 1020.79 1020.95 1020.63 1020.34 1020.42 1020.44 1020.45 1020.60 1020.97 1021.10 1020.71 1020.62 1020.61 1020.14 1019.94 1019.74 1019.33 1019.27 1018.98 1019.04 1018.68 1018.49 1018.15 1018.02 1017.87
1013.74 1013.95 1014.20 1014.76 1015.09 1015.53 1015.91 1016.16 1016.56 1016.84 1017.11 1017.41 1017.61 1018.21 1018.83 1019.81 1020.65 1021.02 1020.79 1020.74 1020.39 1020.10 1019.97 1019.98 1020.17 1020.60 1020.80 1020.96 1020.97 1020.95 1020.91 1020.59 1020.47 1020.14 1019.55 1019.46 1019.31 1019.21 1018.78 1018.71 1018.39 1018.45 1018.25
1013.70 1013.75 1013.95 1014.37 1014.78 1015.10 1015.45 1015.81 1016.12 1016.38 1016.85 1017.32 1017.58 1018.24 1018.58 1019.41 1020.64 1021.14 1021.12 1020.60 1020.11 1019.85 1019.79 1019.66 1019.64 1020.18 1020.49 1020.57 1020.95 1020.99 1021.01 1021.02 1020.97 1020.53 1020.06 1019.67 1019.49 1019.20 1019.09 1018.88 1018.72 1018.77 1018.63
1013.70 1013.83 1013.94 1014.17 1014.48 1014.77 1015.24 1015.55 1015.87 1016.42 1016.87 1017.48 1017.83 1018.32 1019.34 1019.77 1020.36 1020.75 1020.75 1020.51 1019.86 1019.64 1019.49 1019.39 1019.55 1019.66 1019.92 1020.06 1020.19 1020.25 1020.35 1020.35 1020.32 1020.26 1020.10 1019.79 1019.43 1019.15 1019.10 1018.94 1018.79 1018.58 1017.95
1013.67 1013.67 1013.85 1014.00 1014.18 1014.44 1014.77 1015.24 1015.63 1016.00 1016.47 1016.77 1017.73 1018.18 1018.75 1019.11 1019.63 1020.14 1020.39 1019.78 1019.42 1019.30 1019.20 1019.25 1019.37 1019.35 1019.65 1019.92 1019.71 1019.78 1019.75 1019.60 1020.03 1020.41 1020.34 1020.11 1019.89 1019.61 1019.42 1018.75 1017.86 1017.82 1017.28
1013.49 1013.45 1013.51 1013.50 1013.71 1013.95 1014.33 1014.58 1015.17 1015.49 1016.04 1016.35 1016.83 1017.26 1017.91 1018.55 1019.11 1019.58 1020.15 1019.29 1018.96 1018.67 1018.96 1019.12 1019.33 1019.03 1019.48 1019.66 1019.68 1019.66 1019.37 1019.20 1019.29 1019.24 1019.14 1018.80 1018.73 1018.48 1018.86 1018.43 1018.33 1018.30 1017.74
1013.63 1013.33 1013.23 1013.21 1013.25 1013.40 1013.75 1014.22 1014.48 1015.09 1015.40 1015.83 1016.54 1017.07 1017.46 1017.93 1018.57 1019.28 1019.46 1018.91 1018.39 1018.23 1018.26 1018.38 1018.43 1018.83 1019.20 1019.39 1019.73 1019.61 1019.40 1019.51 1019.17 1018.93 1018.55 1018.10 1018.01 1018.30 1018.47 1018.61 1018.61 1018.51 1018.05
1013.66 1013.26 1013.01 1012.92 1012.81 1012.97 1013.30 1013.64 1013.98 1014.31 1014.63 1015.02 1015.54 1016.45 1017.10 1017.67 1018.20 1018.61 1018.54 1018.46 1018.30 1018.00 1017.72 1017.89 1018.14 1018.62 1018.86 1019.12 1019.44 1019.35 1019.37 1019.36 1018.73 1018.33 1017.92 1017.62 1017.75 1018.17 1018.16 1017.76 1017.97 1017.65 1017.42
1013.39 1013.25 1013.10 1013.02 1012.88 1012.69 1012.90 1013.04 1013.41 1013.80 1014.21 1014.73 1015.42 1016.14 1016.63 1017.23 1017.72 1018.04 1017.96 1018.29 1018.11 1017.77 1017.72 1017.87 1018.17 1018.35 1018.47 1018.66 1018.69 1018.82 1018.92 1018.46 1018.08 1017.70 1017.55 1017.33 1017.42 1017.74 1018.07 1017.82 1017.39 1016.75 1016.57
1013.23 1012.99 1012.99 1012.69 1012.71 1012.72 1012.68 1012.82 1013.11 1013.54 1013.91 1014.35 1014.99 1015.59 1016.49 1016.83 1017.24 1017.42 1017.84 1018.29 1017.95 1017.94 1017.96 1017.81 1017.92 1017.94 1018.06 1018.09 1017.98 1018.22 1018.04 1017.82 1017.75 1017.43 1017.23 1017.22 1017.23 1016.94 1016.74 1016.61 1016.47 1016.13 1015.86
1013.05 1012.83 1012.70 1012.58 1012.53 1012.60 1013.16 1013.23 1012.92 1013.06 1013.34 1013.89 1014.75 1015.43 1015.87 1016.24 1016.25 1016.80 1017.50 1017.36 1017.42 1017.54 1017.57 1017.35 1017.20 1017.17 1016.97 1016.81 1017.08 1017.32 1017.37 1017.39 1017.29 1016.99 1016.91 1016.78 1016.59 1016.43 1016.23 1016.21 1016.19 1015.86 1015.53
1012.73 1012.42 1012.35 1012.32 1012.38 1012.64 1013.13 1013.44 1013.33 1013.17 1013.48 1013.84 1014.41 1014.85 1015.28 1015.47 1015.81 1016.58 1017.24 1017.45 1017.63 1017.59 1017.24 1016.77 1016.66 1016.70 1016.59 1016.47 1016.60 1016.68 1016.77 1016.98 1016.79 1016.91 1016.78 1016.58 1016.42 1016.32 1016.18 1016.15 1015.98 1015.64 1015.16
1012.47 1012.12 1012.05 1012.12 1012.27 1012.49 1012.89 1013.37 1013.48 1014.07 1013.98 1014.24 1014.61 1014.95 1015.22 1015.37 1015.94 1016.56 1017.13 1017.57 1017.71 1017.55 1016.72 1016.37 1016.49 1016.56 1016.47 1016.56 1016.62 1016.73 1016.72 1016.87 1017.25 1016.78 1016.67 1016.62 1016.58 1016.40 1016.26 1015.87 1015.67 1015.42 1014.92
1011.81 1011.68 1011.70 1011.63 1011.82 1012.00 1012.46 1012.90 1013.05 1013.41 1013.97 1014.56 1015.06 1015.12 1015.53 1015.58 1016.21 1016.82 1017.23 1017.46 1017.36 1017.06 1016.35 1016.29 1016.41 1016.49 1016.50 1016.60 1016.78 1016.79 1016.78 1016.84 1016.84 1016.92 1016.82 1016.71 1016.58 1016.30 1015.99 1015.75 1015.58 1015.34 1015.02
1011.29 1011.09 1011.06 1011.22 1011.36 1011.71 1012.12 1012.47 1012.61 1013.06 1013.82 1014.23 1015.11 1015.83 1015.90 1016.29 1016.63 1016.96 1017.04 1016.43 1016.15 1016.22 1016.32 1016.37 1016.48 1016.51 1016.62 1016.80 1016.95 1016.81 1016.99 1017.01 1017.36 1017.14 1016.80 1016.63 1016.43 1016.18 1015.89 1015.77 1015.56 1015.61 1015.54
1010.59 1010.61 1010.62 1010.80 1011.08 1011.60 1012.00 1012.27 1012.64 1013.18 1013.74 1014.22 1014.79 1014.93 1015.71 1016.43 1016.43 1016.31 1016.18 1016.09 1016.03 1016.34 1016.43 1016.36 1016.51 1016.68 1016.81 1016.91 1016.90 1016.87 1016.92 1017.06 1016.96 1016.86 1016.67 1016.55 1016.36 1016.22 1015.95 1015.73 1015.50 1015.30 1015.07
1009.95 1009.98 1010.32 1010.54 1010.97 1011.36 1011.88 1012.32 1012.61 1013.34 1013.67 1014.30 1014.54 1014.81 1015.37 1015.24 1015.33 1015.60 1015.79 1016.03 1016.38 1016.45 1016.45 1016.53 1016.57 1016.76 1016.92 1017.02 1016.97 1016.98 1017.14 1017.02 1016.90 1016.85 1016.74 1016.56 1016.41 1016.17 1016.00 1015.74 1015.43 1015.33 1015.43
1009.33 1009.35 1009.92 1010.25 1010.80 1011.46 1012.00 1012.42 1012.96 1013.89 1014.25 1014.21 1014.74 1015.31 1015.75 1015.09 1015.22 1015.62 1016.09 1016.40 1016.60 1016.57 1016.60 1016.80 1016.83 1017.06 1017.14 1017.18 1017.30 1017.35 1017.16 1017.02 1017.03 1017.02 1017.00 1016.93 1016.91 1016.78 1016.44 1015.75 1015.42 1015.41 1015.54
1008.72 1008.56 1009.36 1010.00 1010.57 1011.51 1012.15 1012.70 1013.45 1014.08 1014.38 1014.30 1014.68 1015.16 1015.22 1015.18 1015.60 1016.02 1016.40 1016.66 1016.68 1016.68 1016.94 1017.12 1017.21 1017.12 1017.22 1017.54 1017.65 1017.48 1017.29 1017.27 1017.38 1017.39 1017.45 1017.48 1017.31 1017.03 1016.66 1016.12 1015.79 1015.64 1015.43
1007.83 1008.05 1008.51 1009.80 1010.55 1011.41 1012.31 1013.07 1013.74 1014.12 1013.95 1014.30 1014.63 1014.94 1015.25 1015.61 1016.00 1016.54 1016.72 1016.78 1016.80 1017.03 1017.37 1017.55 1017.56 1017.54 1017.62 1017.70 1017.52 1017.35 1017.34 1017.59 1017.89 1017.73 1017.89 1017.64 1017.27 1016.85 1016.56 1016.17 1015.84 1015.52 1015.13
1007.39 1007.76 1008.67 1009.85 1010.65 1011.34 1012.29 1013.06 1013.79 1014.13 1014.04 1014.44 1014.77 1015.11 1015.58 1016.04 1016.40 1016.81 1016.86 1016.95 1017.22 1017.57 1017.82 1017.77 1017.72 1017.83 1017.80 1017.82 1017.57 1017.60 1018.00 1018.51 1018.39 1018.30 1017.96 1017.34 1016.84 1016.60 1016.17 1015.84 1015.42 1015.12 1014.75
1007.19 1007.61 1008.52 1009.75 1010.55 1011.27 1012.17 1013.03 1013.67 1013.97 1014.18 1014.56 1015.01 1015.51 1015.89 1016.32 1016.74 1016.90 1017.03 1017.36 1017.70 1017.90 1017.89 1017.86 1017.95 1018.00 1017.79 1017.52 1017.67 1018.43 1018.53 1018.47 1018.22 1018.06 1017.65 1016.80 1016.62 1016.27 1015.66 1015.21 1014.73 1014.37 1014.36
Wind_Speed
8 8 9 9 9 10 10 11 12 11 12 11 11 9 9 8 9 7 8 6 7 6 5 5 6 5 5 5 5 7 7 8 10 10 7 5 6 6 8 10 9 8 6
7 9 9 8 8 8 8 11 11 11 10 11 12 11 10 9 8 10 10 8 9 8 7 6 7 4 6 6 7 8 9 9 9 13 9 6 8 9 10 10 7 5 6
6 8 8 9 10 9 8 8 11 11 12 12 12 12 12 10 10 10 10 10 10 9 8 7 7 6 8 7 8 9 8 7 5 6 7 6 7 7 9 6 5 6 6
7 8 9 9 10 9 7 7 10 12 12 13 12 12 12 10 8 8 10 10 10 9 8 8 6 7 7 8 7 7 5 5 3 6 7 7 6 6 6 5 8 7 8
7 8 9 9 9 8 8 7 7 8 9 11 11 12 10 7 4 6 10 11 10 9 8 7 7 6 6 7 6 2 3 5 5 6 7 7 7 8 7 6 7 8 8
7 9 7 7 8 9 7 7 7 8 11 12 12 12 7 2 3 10 11 10 10 8 8 7 6 6 5 5 4 1 4 4 4 6 6 7 8 8 6 7 8 7 5
7 7 6 8 8 8 9 8 10 9 9 9 10 9 7 6 7 12 12 10 9 9 8 6 6 3 7 6 5 4 3 1 4 6 7 7 9 9 9 8 8 3 3
6 7 4 5 8 7 8 8 8 6 6 5 5 5 4 4 7 10 14 13 9 9 8 8 5 7 7 7 5 4 3 3 3 4 7 9 8 8 7 6 8 7 9
7 5 5 6 8 7 9 10 8 9 9 9 7 8 8 7 6 9 12 11 8 10 9 7 5 8 9 7 5 5 5 3 5 7 9 10 10 10 9 7 8 7 8
9 7 5 6 8 10 10 9 7 8 9 9 11 11 10 7 5 6 12 6 9 7 6 6 8 6 9 8 6 5 6 5 6 9 7 5 5 3 4 6 7 6 7
8 7 6 6 8 9 9 7 9 9 10 11 10 8 6 6 4 9 16 8 8 6 6 5 5 9 7 7 7 6 5 5 5 6 6 5 5 5 4 2 2 4 4
8 8 8 8 7 6 8 8 10 11 12 12 10 7 6 5 7 11 15 12 6 5 4 4 3 5 7 7 7 7 5 6 5 5 5 5 5 4 6 6 6 7 6
7 8 8 9 9 8 7 7 7 8 6 7 8 7 6 5 6 12 7 7 8 5 3 2 3 2 2 7 11 7 7 7 5 5 6 6 5 5 7 7 9 8 9
7 7 7 7 7 8 6 4 5 6 7 8 8 7 5 4 7 5 5 6 5 4 5 4 2 2 4 5 3 6 7 5 5 5 6 6 6 7 8 5 7 8 10
7 7 7 6 7 6 1 2 5 7 9 9 7 7 7 7 8 7 8 7 6 4 5 3 4 5 5 4 4 5 5 6 6 5 6 7 8 9 8 7 9 10 10
8 7 5 5 6 5 2 2 10 0 11 10 11 8 8 3 11 12 8 6 7 9 4 3 3 3 4 4 5 6 6 4 5 5 7 7 8 8 8 9 9 9 10
9 9 5 4 6 4 3 4 4 6 10 7 8 8 7 7 12 11 9 9 7 6 4 2 3 3 3 4 5 5 5 4 5 6 6 6 7 8 8 9 9 9 9
11 10 7 5 5 5 5 6 5 7 6 3 5 2 7 12 11 11 11 9 5 4 2 2 3 3 3 4 4 5 5 5 5 6 7 7 7 8 9 9 9 9 8
10 8 6 5 5 6 4 5 5 6 6 6 6 6 8 10 10 8 8 4 2 2 1 3 2 2 3 4 4 5 5 5 6 7 7 8 8 8 9 8 8 6 6
10 11 6 4 4 4 4 4 5 6 7 6 7 9 9 8 7 6 3 2 2 0 1 2 2 3 4 4 5 5 5 6 7 8 8 8 8 8 8 8 7 7 7
8 7 7 4 4 3 4 5 6 7 7 6 6 7 6 6 5 4 4 4 1 1 2 3 3 3 4 4 5 6 6 7 8 8 8 8 8 8 8 7 7 6 6
7 7 5 5 3 3 5 6 7 6 4 8 6 5 4 4 5 5 4 3 2 2 3 3 4 4 4 5 6 7 7 8 8 8 9 8 8 8 8 7 6 5 4
8 8 7 5 5 8 7 6 6 4 6 7 7 7 5 5 5 5 4 3 3 3 4 3 3 3 4 5 5 6 7 8 8 8 9 7 6 6 6 6 6 4 4
9 9 8 6 8 8 7 6 5 6 7 7 7 7 6 6 5 5 4 3 4 4 3 2 4 6 6 6 5 6 7 7 8 8 8 6 6 6 5 5 5 6 6
6 4 7 8 10 10 9 8 7 6 7 7 7 7 7 6 5 4 4 4 4 3 2 3 4 6 6 8 8 10 9 6 7 7 6 7 7 8 6 4 5 4 5
7 8 9 9 10 9 8 7 7 8 8 8 8 7 7 6 5 4 4 4 2 1 3 3 4 7 9 7 8 10 7 6 7 6 6 5 4 5 5 5 3 2 2
Wind_Direction
213 210 189 184 172 183 198 196 194 187 187 188 188 185 200 217 218 217 232 203 212 207 215 235 255 256 273 277 274 274 277 272 277 287 301 319 291 286 296 307 306 301 294
209 194 186 179 176 187 193 202 198 194 193 196 191 183 198 212 223 220 224 221 216 219 232 248 254 258 268 271 275 284 288 291 282 297 313 299 278 328 310 305 314 315 320
231 203 193 186 189 193 192 202 207 201 200 195 201 189 195 204 214 226 227 229 223 226 234 236 253 262 272 288 290 298 297 298 287 275 287 300 314 309 318 304 319 324 302
233 215 207 209 205 200 195 189 203 202 196 202 200 200 201 196 204 229 228 231 228 227 231 241 252 267 276 287 296 306 289 288 280 284 307 315 324 336 295 312 323 328 330
246 235 227 202 199 200 189 193 190 194 211 211 200 211 209 207 202 223 232 234 229 229 237 246 249 255 281 288 285 304 275 298 323 317 318 320 329 332 335 329 315 326 351
268 263 259 209 187 194 193 188 183 197 214 206 198 207 181 173 303 250 238 230 233 233 244 244 239 225 196 150 143 239 346 326 325 329 330 333 318 317 332 331 328 329 337
292 280 265 223 198 195 199 191 206 203 205 207 202 192 168 149 237 268 254 249 245 239 243 234 241 184 200 181 171 174 166 218 274 313 311 322 313 332 323 319 309 324 275
332 301 270 207 216 206 203 198 205 206 184 171 167 146 157 203 234 260 261 251 247 242 234 238 246 208 190 192 204 214 244 248 233 272 294 304 304 317 307 297 302 299 284
356 314 267 227 232 211 195 206 188 166 177 165 169 161 191 214 228 273 268 239 225 234 233 224 211 211 163 191 217 266 275 279 167 231 262 280 278 277 277 287 293 303 306
358 341 293 263 251 241 226 198 195 191 182 176 194 188 184 202 217 266 240 228 226 228 217 225 228 208 167 175 230 267 289 326 327 327 324 285 269 10 233 306 340 320 301
344 342 321 292 266 258 237 196 191 187 190 190 198 186 162 177 203 235 243 236 236 219 222 212 201 182 191 193 223 257 292 326 297 297 318 320 349 3 343 317 246 241 282
339 335 334 317 295 270 231 203 196 195 197 193 175 165 164 164 203 238 235 228 219 225 227 212 168 165 207 205 213 236 217 247 274 303 318 344 352 336 322 319 292 276 266
330 337 336 328 313 291 246 211 206 201 192 166 160 163 174 181 212 224 213 220 197 193 215 86 81 205 221 235 230 217 208 235 271 303 330 332 335 317 302 299 296 282 281
311 323 323 329 323 314 280 209 188 180 174 164 164 163 169 173 216 210 192 198 152 201 174 179 119 320 299 305 201 197 235 247 275 301 310 321 312 304 306 290 292 306 305
299 304 313 316 316 306 328 283 194 185 177 166 162 168 173 205 214 181 187 191 181 175 182 198 225 239 265 264 245 257 258 246 250 279 298 308 308 308 307 317 310 305 300
291 293 301 308 308 300 210 228 25 336 146 145 154 187 190 192 143 161 173 149 136 162 206 242 272 271 293 323 314 314 295 258 283 304 303 307 310 312 312 313 302 300 298
278 282 280 279 295 268 194 206 164 41 66 100 154 197 202 148 146 144 146 140 162 183 249 285 275 283 328 322 326 324 325 352 322 303 318 317 311 307 301 307 305 303 299
274 258 265 266 273 280 229 210 182 165 154 135 59 207 154 134 134 138 149 160 176 215 292 280 279 312 322 334 328 328 331 328 325 322 315 312 305 303 305 305 307 309 308
283 265 251 247 267 281 248 202 177 160 139 109 125 89 93 98 111 136 187 254 295 299 215 247 294 321 333 327 317 324 330 335 325 313 309 306 307 305 303 304 306 288 287
271 257 257 256 258 223 202 180 136 136 120 132 168 141 140 156 176 174 181 157 111 158 238 314 343 331 327 323 321 328 325 319 319 314 314 311 306 304 299 301 299 301 306
259 251 225 215 230 221 182 157 136 133 135 150 166 139 167 187 143 136 128 114 163 290 20 357 332 332 320 319 325 330 323 320 321 322 317 314 312 305 303 297 291 290 300
247 235 197 199 166 185 150 140 119 113 154 157 145 127 228 135 127 127 123 143 107 63 40 351 340 335 344 344 339 322 322 325 326 325 321 319 323 318 311 300 296 307 301
226 220 185 192 160 131 119 111 109 136 176 161 151 151 157 134 131 130 133 114 84 54 41 11 327 333 357 337 322 323 328 332 330 323 321 315 304 300 303 303 302 303 290
214 221 180 172 143 133 126 119 130 194 171 154 146 144 137 136 129 122 122 108 80 62 43 353 356 356 338 322 324 329 334 345 329 320 312 299 296 297 298 297 299 294 290
205 189 149 144 149 136 135 134 149 175 159 138 140 131 132 129 128 126 111 87 69 47 15 358 7 344 341 340 337 336 13 347 310 311 292 289 293 305 293 294 291 297 303
183 199 148 150 154 140 133 137 154 156 142 137 124 129 130 127 125 118 99 85 67 13 6 8 356 345 350 350 4 356 322 313 309 305 304 290 298 289 284 273 258 277 29